KK7N Weather Reports


time (UTC)temp
C
wind
direction
speed
KPH
gust
KPH
rain 1hr
cm
rain 24hr
cm
rain mn
cm
humidity
%
barometer
mb
20260508160043 11 0 1.6 12.9 0.00 0.00 0.00 77 1021.3
20260508154545 11 188 3.2 12.9 0.00 0.00 0.00 78 1021.2
20260508153043 10 211 3.2 9.7 0.00 0.00 0.00 78 1021.3
20260508151545 10 0 0.0 12.9 0.00 0.00 0.00 81 1021.4
20260508150039 10 222 1.6 11.3 0.00 0.00 0.00 80 1021.8
20260508144546 10 250 4.8 12.9 0.00 0.00 0.00 80 1021.7
20260508143053 10 198 4.8 11.3 0.00 0.00 0.00 81 1021.6
20260508141543 10 220 4.8 17.7 0.00 0.00 0.00 82 1021.3
20260508140043 8 0 1.6 9.7 0.00 0.00 0.00 87 1020.8
20260508134548 8 0 0.0 0.0 0.00 0.00 0.00 90 1020.4
20260508133048 8 0 0.0 0.0 0.00 0.00 0.00 89 1020.1
20260508131545 8 0 0.0 1.6 0.00 0.00 0.00 89 1019.7
20260508130049 8 0 0.0 0.0 0.00 0.00 0.00 89 1019.5
20260508124548 8 0 0.0 0.0 0.00 0.00 0.00 89 1019.2
20260508123047 8 0 0.0 0.0 0.00 0.00 0.00 89 1019.1
20260508121549 8 0 0.0 0.0 0.00 0.00 0.00 89 1018.8
20260508120045 8 0 0.0 0.0 0.00 0.00 0.00 89 1018.7
20260508114551 8 0 0.0 0.0 0.00 0.00 0.00 89 1018.6
20260508113051 8 0 0.0 0.0 0.00 0.00 0.00 88 1018.4
20260508111557 8 0 0.0 0.0 0.00 0.00 0.00 88 1018.2
20260508110047 8 0 0.0 0.0 0.00 0.00 0.00 88 1018.1
20260508104544 8 0 0.0 0.0 0.00 0.00 0.00 88 1018.0
20260508103045 8 0 0.0 0.0 0.00 0.00 0.00 87 1017.9
20260508101542 9 0 0.0 0.0 0.00 0.00 0.00 87 1017.8
20260508100047 9 0 0.0 0.0 0.00 0.00 0.00 86 1017.6
20260508094546 9 0 0.0 0.0 0.00 0.00 0.00 86 1017.6
20260508093051 9 0 0.0 0.0 0.00 0.00 0.00 86 1017.5
20260508091556 9 0 0.0 0.0 0.00 0.00 0.00 86 1017.4
20260508090045 10 0 0.0 0.0 0.00 0.00 0.00 85 1017.3
20260508084545 10 0 0.0 0.0 0.00 0.00 0.00 85 1017.2
20260508083049 10 0 0.0 0.0 0.00 0.00 0.00 84 1017.1
20260508081551 10 0 0.0 0.0 0.00 0.00 0.00 84 1017.0
20260508080044 10 0 0.0 0.0 0.00 0.00 0.00 83 1016.8
20260508074544 11 0 0.0 0.0 0.00 0.00 0.00 82 1016.8
20260508073048 11 0 0.0 0.0 0.00 0.00 0.00 82 1016.8
20260508071548 11 0 0.0 0.0 0.00 0.00 0.00 81 1016.8
20260508070055 11 0 0.0 0.0 0.00 0.00 0.00 79 1016.8
20260508064543 11 0 0.0 0.0 0.00 0.00 0.00 79 1016.8
20260508063049 12 0 0.0 1.6 0.00 0.00 0.00 78 1016.8
20260508061551 12 0 0.0 0.0 0.00 0.00 0.00 76 1016.8
20260508060049 12 0 0.0 0.0 0.00 0.00 0.00 74 1016.8
20260508054548 12 0 0.0 1.6 0.00 0.00 0.00 73 1016.7
20260508053058 12 271 0.0 3.2 0.00 0.00 0.00 74 1016.7
20260508051546 13 0 0.0 1.6 0.00 0.00 0.00 75 1016.6
20260508050045 13 0 0.0 0.0 0.00 0.00 0.00 74 1016.6
20260508044549 14 0 0.0 0.0 0.00 0.00 0.00 71 1016.5
20260508043040 15 0 0.0 0.0 0.00 0.00 0.00 71 1016.5
20260508041543 15 0 0.0 0.0 0.00 0.00 0.00 67 1016.4
20260508040044 16 0 0.0 0.0 0.00 0.00 0.00 62 1016.4
20260508034548 17 0 0.0 0.0 0.00 0.00 0.00 58 1016.2
20260508033043 18 0 0.0 0.0 0.00 0.00 0.00 54 1015.9
20260508031544 18 0 0.0 0.0 0.00 0.00 0.00 49 1015.9
20260508030046 19 0 0.0 1.6 0.00 0.00 0.00 45 1015.7
20260508024553 20 0 0.0 0.0 0.00 0.00 0.00 41 1015.8
20260508023046 20 0 0.0 0.0 0.00 0.00 0.00 38 1015.9
20260508021548 21 0 0.0 3.2 0.00 0.00 0.00 40 1015.9
20260508020046 21 0 0.0 4.8 0.00 0.00 0.00 38 1016.1
20260508014543 21 0 0.0 0.0 0.00 0.00 0.00 40 1016.1
20260508013042 21 0 0.0 1.6 0.00 0.00 0.00 40 1016.0
20260508011600 21 0 3.2 9.7 0.00 0.00 0.00 36 1016.2
20260508010049 21 0 0.0 3.2 0.00 0.00 0.00 38 1016.4
20260508004556 22 277 0.0 9.7 0.00 0.00 0.00 36 1016.6
20260508003049 21 293 0.0 4.8 0.00 0.00 0.00 37 1016.7
20260508001552 22 0 3.2 11.3 0.00 0.00 0.00 35 1016.8
20260508000041 22 0 3.2 11.3 0.00 0.00 0.00 38 1016.8
20260507234553 22 0 3.2 8.0 0.00 0.00 0.00 36 1017.0
20260507233043 22 308 1.6 6.4 0.00 0.00 0.00 43 1017.0
20260507231549 21 305 0.0 8.0 0.00 0.00 0.00 39 1017.1
20260507230050 22 310 1.6 14.5 0.00 0.00 0.00 40 1017.3
20260507224549 21 284 4.8 16.1 0.00 0.00 0.00 39 1017.4
20260507223054 21 285 1.6 16.1 0.00 0.00 0.00 37 1017.6
20260507221548 21 294 1.6 11.3 0.00 0.00 0.00 41 1017.6
20260507220051 21 297 0.0 12.9 0.00 0.00 0.00 49 1017.9
20260507214548 21 294 4.8 11.3 0.00 0.00 0.00 46 1018.2
20260507213054 20 288 1.6 6.4 0.00 0.00 0.00 47 1018.5
20260507211547 20 288 1.6 11.3 0.00 0.00 0.00 48 1018.6
20260507210052 20 308 3.2 12.9 0.00 0.00 0.00 49 1018.9
20260507204552 20 298 1.6 12.9 0.00 0.00 0.00 50 1019.1
20260507203050 19 0 0.0 11.3 0.00 0.00 0.00 54 1019.1
20260507201544 19 284 0.0 6.4 0.00 0.00 0.00 58 1019.3
20260507200047 18 284 0.0 6.4 0.00 0.00 0.00 60 1019.4
20260507194545 18 286 6.4 14.5 0.00 0.00 0.00 54 1019.6
20260507193051 18 176 0.0 6.4 0.00 0.00 0.00 55 1019.7
20260507191551 18 221 0.0 11.3 0.00 0.00 0.00 57 1019.9
20260507190042 17 0 1.6 4.8 0.00 0.00 0.00 60 1020.1
20260507184547 17 0 8.0 14.5 0.00 0.00 0.00 58 1020.3
20260507183045 17 273 0.0 12.9 0.00 0.00 0.00 58 1020.4
20260507181543 16 294 4.8 12.9 0.00 0.00 0.00 60 1020.7
20260507180047 16 227 6.4 11.3 0.00 0.00 0.00 59 1020.7
20260507174547 16 295 0.0 8.0 0.00 0.00 0.00 58 1020.9
20260507173045 16 304 0.0 6.4 0.00 0.00 0.00 64 1021.0
20260507171558 15 0 0.0 11.3 0.00 0.00 0.00 64 1021.1
20260507170052 15 283 0.0 6.4 0.00 0.00 0.00 66 1021.0
20260507164549 13 0 1.6 9.7 0.00 0.00 0.00 70 1021.1
20260507163048 13 281 1.6 9.7 0.00 0.00 0.00 72 1021.0
20260507161543 12 281 3.2 9.7 0.00 0.00 0.00 75 1021.1